Location: B�rgermoos
(47.6500°N, 9.0667°E)
Time: 16:50:49
(UTC+00:00)

A-11 Canister half - Pass Details

Date: 10 August 2021
Orbit: 1526 x 1683 km, 47.3° (Epoch: 20 September)

Event Time Altitude Azimuth Distance (km) Brightness Sun altitude
Rises 08:56:16 0° 238° (WSW) 4,913 11.5 45.0°
Reaches altitude 10° 08:59:26 10° 236° (SW) 3,935 11.1 45.4°
Maximum altitude 09:09:28 69° 156° (SSE) 1,775 10.8 46.8°
Drops below altitude 10° 09:19:28 10° 76° (ENE) 3,919 11.6 48.2°
Sets 09:22:36 0° 74° (ENE) 4,892 11.9 48.6°
